Hourly Data Report for September 12, 2017

All times are specified in Local Standard Time (LST). Add 1 hour to adjust for Daylight Saving Time where and when it is observed.

PETAWAWA AWOS 2
ONTARIO

45°57'00.000" N
77°19'00.000" W
130.10 m
6106396
71625
YWA

Download Data

Hourly Data (September 2017)
Hourly Data Report for September 12, 2017
Temp Definition
°C
Dew Point Temp Definition
°C
Rel Hum Definition
%
Wind Dir Definition
10's deg

Wind Spd Definition
km/h
Visibility Definition
km
Stn Press Definition
kPa
Hmdx Definition


Wind Chill Definition


Weather Definition


TIME
00:00 9.3 8.8 97 27 4 14.5 100.34     LegendNANA
01:00 8.9 8.6 98   0 8.0 100.30     LegendNANA
02:00 8.0 7.8 99 24 4 14.5 100.23     LegendNANA
03:00 7.1 6.8 98   0 14.5 100.21     LegendNANA
04:00 7.0 7.0 100   0 14.5 100.17     LegendNANA
05:00 6.8 6.8 100 28 4 14.5 100.14     LegendNANA
06:00 5.8 5.3 97 22 4 14.5 100.13     LegendNANA
07:00 8.1 7.8 98   0 14.5 100.11     LegendNANA
08:00 12.2 11.6 96 15 4 4.0 100.09     LegendNANA
09:00 13.9 12.3 90 7 7 14.5 100.03     LegendNANA
10:00 16.6 12.5 77 5 9 14.5 100.01     LegendNANA
11:00 17.8 13.3 75 6 7 14.5 99.95     LegendNANA
12:00 20.4 14.3 68 5 9 14.5 99.87     LegendNANA
13:00
14:00 23.2 15.8 63 3 7 14.5 99.68 28   LegendNANA
15:00 25.6 14.5 50 28 13 14.5 99.63 29   LegendNANA
16:00 25.5 13.7 48 27 11 14.5 99.58 29   LegendNANA
17:00 25.3 14.2 50 28 7 14.5 99.56 29   LegendNANA
18:00 23.7 14.9 58 29 6 14.5 99.57 28   LegendNANA
19:00 18.4 15.3 82 21 4 14.5 99.60     LegendNANA
20:00 17.0 14.8 87   0 14.5 99.62     LegendNANA
21:00 14.3 13.3 94   0 14.5 99.60     LegendNANA
22:00 14.6 13.6 94 29 4 14.5 99.59     LegendNANA
23:00 13.3 12.6 96   0 14.5 99.58     LegendNANA

Notes on Data Quality.

Legend

  • E = Estimated
  • M = Missing
  • NA = Not Available
  • ‡ = Partner data that is not subject to review by the National Climate Archives
Date modified: